Location: Rioux
(40.7500°S, 175.7500°E)
Time: 09:25:31
(UTC+00:00)

USA 59 Rocket - Pass Details

Date: 12 June 2024
Orbit: 383 x 1740 km, 63.3° (Epoch: 20 July)

Event Time Altitude Azimuth Distance (km) Brightness Sun altitude
Exits shadow 15:14:09 21° 165° (SSE) 3,079 3.6 -49.1°
Drops below altitude 10° 15:20:23 10° 122° (ESE) 3,567 4.4 -47.9°
Sets 15:24:05 0° 106° (ESE) 4,319 5.1 -47.2°
